Location: *
(55.6049°S, 142.1985°W)
Time: 16:10:25
(UTC+00:00)

ADEOS Rocket - Pass Details

Date: 12 May 2021
Orbit: 858 x 1307 km, 98.7° (Epoch: 17 June)

Event Time Altitude Azimuth Distance (km) Brightness Sun altitude
Rises 12:56:09 0° 163° (SSE) 3,515 6.4 -35.7°
Reaches altitude 10° 12:58:31 10° 159° (SSE) 2,598 5.6 -35.4°
Enters shadow 13:02:53 50° 131° (SE) 1,186 3.6 -34.8°
